Torna al catalogo

STARLINK-36279

AttivoComunicazioniVLEO
NORAD 67193·PAYLOAD·🇺🇸 United States

Lanciato Dec 17, 2025 da Vandenberg Space Force Base

Loading…

Prossimi Passaggi (prossime 24 ore)

TLE

AggiornatoSource: CelesTrak SupGP

Epoca: Sep 15, 2026, 02:53 UTC

1 67193C 25304B   26258.12062500 -.00043907  00000+0 -36804-2 0  2584
2 67193  70.0018  56.8157 0002891 267.3523 326.7732 14.98345192    11

Traccia STARLINK-36279 in tempo reale con AllMySat

Download on the App Store